Location: Bakhuizen
(52.8696°N, 5.4575°E)
Time: 04:42:16
(UTC+00:00)

NOSS 3-3 (C) - Pass Details

Date: 11 May 2021
Orbit: 807 x 1405 km, 63.4° (Epoch: 06 June)

Event Time Altitude Azimuth Distance (km) Brightness Sun altitude
Rises 21:21:48 0° 229° (SW) 3,429 6.8 -13.4°
Reaches altitude 10° 21:24:09 10° 231° (SW) 2,548 6.1 -13.6°
Maximum altitude 21:30:04 80° 319° (NW) 991 4.1 -14.1°
Drops below altitude 10° 21:36:59 10° 47° (NE) 2,945 6.7 -14.6°
Sets 21:39:52 0° 49° (NE) 4,000 7.4 -14.8°
